Orbital Elements at Epoch 2459200.5 (2020-Dec-17.0) TDB
Reference: JPL 16 (heliocentric ecliptic J2000)
Element | Value | Uncertainty (1-sigma) | Units |
e | .0630417395322012 | 4.5516e-08 | |
a | 2.807210918331404 | 1.9379e-08 | au |
q | 2.630239458806004 | 1.2996e-07 | au |
i | 6.607583910464109 | 5.5335e-06 | deg |
node | 151.2075167361038 | 4.7082e-05 | deg |
peri | 171.1439352171846 | 6.7981e-05 | deg |
M | 302.3092845073871 | 5.0824e-05 | deg |
tp | 2459475.805202124814 (2021-Sep-18.30520212) | 0.00024309 | TDB |
period | 1717.951873514617 4.70 | 1.7789e-05 4.87e-08 | d yr |
n | .2095518538965271 | 2.1699e-09 | deg/d |
Q | 2.984182377856803 | 2.0601e-08 | au |
|
| | Orbit Determination Parameters
Additional Information
|